Retour au catalogue

COSMOS 2190

ActifMilitaireLEO
NORAD 21979·PAYLOAD·🇷🇺 Russia

Lancé Jun 3, 1992 depuis Plesetsk Cosmodrome

Loading…

Prochains Passages (prochaines 24 heures)

TLE

FraisSource: Space-Track

Époque: Sep 14, 2026, 14:21 UTC

1 21979U 92030D   26257.59805824 -.00000017  00000-0 -64281-5 0  9991
2 21979  74.0000  97.2153 0031854 330.9375  52.6885 12.52287258567148

Suivez COSMOS 2190 en temps réel avec AllMySat

Download on the App Store